Dayton, OH

2:02 AM EDT on August 21, 2017 (GMT -0400)
Cox-Dayton International

Weather History for KDAY - August, 2012

Change the Weather History Date:

Thursday, August 16, 2012

  Actual Average Record
Temperature  
Mean Temperature 74 °F 73 °F  
Max Temperature 86 °F 83 °F 98 °F (1965)
Min Temperature 62 °F 63 °F 47 °F (1963)
Degree Days  
Heating Degree Days 0 0  
Month to date heating degree days 0 0  
Since 1 June heating degree days 21 22  
Since 1 July heating degree days 0 0  
Cooling Degree Days 9 8  
Month to date cooling degree days 141 134  
Year to date cooling degree days 1044 673  
Since 1 June cooling degree days 861 603  
Growing Degree Days 24 (Base 50)    
Moisture  
Dew Point 60 °F    
Average Humidity 61    
Maximum Humidity 84    
Minimum Humidity 37    
Precipitation  
Precipitation T in 0.10 in 1.35 in (1900)
Month to date precipitation 1.50 1.50  
Year to date precipitation 18.80 26.82  
Snow  
Snow 0.00 in 0.00 in 0.00 in ()
Month to date snowfall 0.0 0.0  
Since 1 June snowfall 0.0 0.0  
Since 1 July snowfall 0.0 0.0  
Snow Depth 0.00 in    
Sea Level Pressure  
Sea Level Pressure 29.95 in    
Wind  
Wind Speed 12 mph (SW)    
Max Wind Speed 33 mph    
Max Gust Speed 44 mph    
Visibility 10 miles    
Events Rain    
T = Trace of Precipitation, MM = Missing Value Source: NWS Daily Summary

Daily Weather History Graph

Daily Weather History Graph

Search for Another Location

Airport or City:

Trip Planner

Search our weather history database for the weather conditions in past years. The results will help you decide how hot, cold, wet, or windy it might be!

Date:

Astronomy

Aug. 16, 2012 Rise Set
Actual Time 6:50 AM EDT 8:31 PM EDT
Civil Twilight 6:21 AM EDT 9:00 PM EDT
Nautical Twilight 5:46 AM EDT 9:34 PM EDT
Astronomical Twilight 5:09 AM EDT 10:11 PM EDT
Moon 5:47 AM EDT (8/16) 7:40 PM EDT (8/16)
Length of Visible Light 14h 38m
Length of Day
13h 41m
Waning Crescent, 1% of the Moon is Illuminated
Aug 16
Waning Crescent
Aug 17
New
Aug 24
First Quarter
Aug 31
Full
Sep 8
Last Quarter

Hourly Weather History & Observations

Time (EDT) Temp. Heat Index Dew Point Humidity Pressure Visibility Wind Dir Wind Speed Gust Speed Precip Events Conditions
12:56 AM 70.0 °F - 57.9 °F 65% 30.00 in 10.0 mi SSE 4.6 mph - N/A   Partly Cloudy
1:56 AM 70.0 °F - 57.9 °F 65% 30.00 in 10.0 mi Calm Calm - N/A   Clear
2:56 AM 66.9 °F - 57.9 °F 73% 30.00 in 10.0 mi SW 3.5 mph - N/A   Clear
3:56 AM 69.1 °F - 57.9 °F 68% 30.00 in 10.0 mi SSW 5.8 mph - N/A   Clear
4:56 AM 63.0 °F - 57.0 °F 81% 30.00 in 10.0 mi SW 4.6 mph - N/A   Clear
5:56 AM 66.0 °F - 57.9 °F 75% 30.00 in 10.0 mi SSE 3.5 mph - N/A   Partly Cloudy
6:56 AM 66.0 °F - 59.0 °F 78% 30.00 in 9.0 mi South 6.9 mph - N/A   Partly Cloudy
7:56 AM 68.0 °F - 60.1 °F 76% 29.99 in 10.0 mi SSW 6.9 mph - N/A   Clear
8:56 AM 71.1 °F - 61.0 °F 70% 29.98 in 10.0 mi South 8.1 mph - N/A   Clear
9:56 AM 75.9 °F - 62.1 °F 62% 30.02 in 10.0 mi SW 8.1 mph - N/A   Scattered Clouds
10:56 AM 79.0 °F - 61.0 °F 54% 30.01 in 10.0 mi SSW 11.5 mph - N/A   Scattered Clouds
11:56 AM 82.9 °F 83.2 °F 60.1 °F 46% 29.99 in 10.0 mi SSW 15.0 mph 23.0 mph N/A   Scattered Clouds
12:56 PM 84.9 °F 83.7 °F 55.9 °F 37% 29.99 in 10.0 mi WSW 23.0 mph - N/A   Mostly Cloudy
1:56 PM 82.9 °F 82.4 °F 57.0 °F 41% 30.02 in 10.0 mi West 18.4 mph 21.9 mph N/A   Mostly Cloudy
2:56 PM 82.9 °F 82.8 °F 59.0 °F 44% 30.01 in 10.0 mi WNW 17.3 mph 21.9 mph N/A   Overcast
3:56 PM 79.0 °F - 59.0 °F 50% 29.95 in 10.0 mi West 10.4 mph - N/A   Overcast
4:56 PM 80.1 °F 80.9 °F 60.1 °F 50% 29.88 in 10.0 mi South 6.9 mph - N/A   Overcast
5:56 PM 81.0 °F 81.6 °F 60.1 °F 49% 29.88 in 10.0 mi SW 10.4 mph - N/A   Mostly Cloudy
6:56 PM 80.1 °F 81.1 °F 61.0 °F 52% 29.89 in 10.0 mi West 13.8 mph - N/A   Overcast
7:56 PM 75.0 °F - 63.0 °F 66% 29.91 in 10.0 mi WSW 23.0 mph 31.1 mph 0.00 in Rain Light Rain
8:56 PM 72.0 °F - 62.1 °F 71% 29.83 in 10.0 mi SSW 24.2 mph 31.1 mph 0.00 in   Mostly Cloudy
9:56 PM 72.0 °F - 63.0 °F 73% 29.81 in 10.0 mi SSW 26.5 mph 41.4 mph 0.00 in Rain Light Rain
10:56 PM 75.0 °F - 61.0 °F 62% 29.79 in 10.0 mi SSW 23.0 mph 34.5 mph 0.00 in   Partly Cloudy
11:27 PM 73.4 °F - 60.8 °F 65% 29.87 in 10.0 mi NNW 13.8 mph 27.6 mph N/A   Scattered Clouds
11:56 PM 73.0 °F - 59.0 °F 61% 29.87 in 10.0 mi NNW 11.5 mph - N/A   Scattered Clouds